Regional Weather Roundup
Issued by NWS

Home | Current Version | Previous Version | Graphics & Text | Print | Product List | Glossary On
Versions: 1 2 3 4 5 6 7 8 9 10 11 12 13 14 15 16 17 18 19 20 21 22 23 24 25 26 27 28 29 30 31 32 33 34 35 36 37 38 39 40 41 42 43 44 45 46 47 48 49 50
000
ASUS45 KBOU 251807
RWRCO

WEATHER ROUNDUP FOR COLORADO
NATIONAL WEATHER SERVICE DENVER/BOULDER CO
1200 PM MDT FRI JUL 25 2014

NOTE: "FAIR" INDICATES FEW OR NO CLOUDS BELOW 12000 FEET WITH NO
SIGNIFICANT WEATHER AND/OR OBSTRUCTIONS TO VISIBILITY.

COZ001>005-013-030-031-251900-
...NORTHWEST COLORADO...

CITY           SKY/WX    TMP DP  RH WIND       PRES   REMARKS
CRAIG          MOSUNNY   83  52  34 SW15G22   30.18F
HAYDEN         MOSUNNY   82  48  30 SW10      30.22S
MEEKER         MOSUNNY   85  47  26 S14       30.21F
MOUNT WERNER   NOT AVBL
STEAMBOAT SPGS MOSUNNY   80  52  36 SW3       30.24F
WALDEN         PTSUNNY   77  43  29 SW15      30.33S
$$

COZ006>008-011-251900-
...WEST CENTRAL VALLEYS...

CITY           SKY/WX    TMP DP  RH WIND       PRES   REMARKS
GRAND JUNCTION MOSUNNY   86  50  28 SE16      30.12F
MONTROSE       PTSUNNY   81  53  37 SE8       30.24F
EAGLE          MOSUNNY   75  52  43 N5        30.29F
RIFLE          MOSUNNY   85  48  27 N5        30.17F
DELTA          PTSUNNY   85  49  28 NE8       30.19F
NUCLA          PTSUNNY   81  46  30 SW3       30.29S
$$

COZ017>023-064>068-251900-
...SOUTHWEST COLORADO...

CITY           SKY/WX    TMP DP  RH WIND       PRES   REMARKS
DURANGO        SUNNY     85  45  24 NW13      30.29F
CORTEZ         PTSUNNY   84  49  29 CALM      30.24F
PAGOSA SPRINGS SUNNY     79  42  26 S7        30.38S
TELLURIDE      PTSUNNY   66  54  63 CALM      30.50F
WOLF CREEK PAS NOT AVBL
$$

COZ009-010-012-014-032>034-037-058>063-251900-
...CENTRAL COLORADO...

CITY           SKY/WX    TMP DP  RH WIND       PRES   REMARKS
ASPEN          PTSUNNY   74  51  44 VRB5      30.36R
BUENA VISTA    MOSUNNY   81  40  23 SE12G22   30.33F
COPPER MTN     PTSUNNY   63  36  36 W16G24    30.69F
BERTHOUD PASS  PTSUNNY   54  39  58 NW12G22   30.75R
COTTONWOOD PAS MOSUNNY   77  32  19 SW9G21    30.50F
GUNNISON       MOSUNNY   75  48  38 SW3       30.39F
KREMMLING      PTSUNNY   77  43  29 W3        30.32F
LEADVILLE      PTSUNNY   67  38  34 NW15G21   30.50F
MONARCH PASS   MOSUNNY   61  43  51 SW22G31   30.80F
SALIDA         MOSUNNY  N/A N/A N/A SE5       30.37F
SUNLIGHT       MOSUNNY   68  50  52 CALM      30.62S
WILKERSON PASS PTSUNNY   70  37  30 SW6       30.65F
$$

COZ069>075-251900-
...SAN LUIS VALLEY/SANGRE DE CRISTO MOUNTAINS...

CITY           SKY/WX    TMP DP  RH WIND       PRES   REMARKS
ALAMOSA        SUNNY     78  47  33 VRB3      30.34F
LA VETA PASS   MOSUNNY   70  41  35 W8        30.55S
SAGUACHE       MOSUNNY   73  52  46 CALM      30.37F
$$

COZ035-036-038>040-251900-
...NORTHERN COLORADO FRONT RANGE...

CITY           SKY/WX    TMP DP  RH WIND       PRES   REMARKS
DENVER INTL AP PTSUNNY   92  44  19 S12       30.10S
DMNS CITY PARK   N/A     88  43  20 S3G12     30.08F
AURORA         PTSUNNY   89  48  24 SE9       30.13F
FRONT RANGE AP PTSUNNY   93  46  20 SE9       30.12F
ERIE MUNI ARPT MOSUNNY   93  43  17 S7        30.07F
BOULDER MUN AP MOSUNNY   91  46  21 SE5       30.07F
CENTENNIAL     PTSUNNY   89  42  19 E12       30.14F
BROOMFIELD     PTSUNNY   90  45  20 SE9       30.13S
FORT COLLINS   MOSUNNY   91  54  27 SE9       30.05F
LONGMONT       MOSUNNY   92  47  21 E7        30.07F
$$

COZ041-046-047-076>085-087-088-251900-
...PIKES PEAK/PALMER DIVIDE AND SOUTHERN FOOTHILLS...

CITY           SKY/WX    TMP DP  RH WIND       PRES   REMARKS
COLO. SPRINGS  PTSUNNY   89  44  20 E9        30.19S
A. F. ACADEMY  MOSUNNY   86  46  24 VRB5      30.21F
ELLICOTT       SUNNY     89  42  19 E8        30.17
FALCON         SUNNY     85  45  24 CALM      30.26S
FORT CARSON    MOSUNNY   89  46  22 E8        30.16S
LIMON          MOSUNNY   91  44  19 N12G22    30.11S
MONUMENT HILL  MOSUNNY   82  43  24 NE8       30.26S
TRINIDAD       SUNNY     94  43  17 N15G21    30.13F
$$

COZ042>045-048>051-090-091-251900-
...NORTHEAST COLORADO...

CITY           SKY/WX    TMP DP  RH WIND       PRES   REMARKS
GREELEY ARPT   SUNNY     90  55  31 E9        30.06S
AKRON          MOSUNNY   89  54  30 N8        30.06S
BURLINGTON     MOSUNNY   91  56  30 NE15G21   30.01F
WRAY             N/A     89  57  33 N13       30.00R
STERLING       MOSUNNY   84  61  45 NE9       30.01F
HOLYOKE        SUNNY     86  55  35 N15       29.99F
FORT MORGAN    MOSUNNY   86  52  30 E8        30.06S
$$

COZ086-089-092>099-251900-
...SOUTHEAST COLORADO...

CITY           SKY/WX    TMP DP  RH WIND       PRES   REMARKS
PUEBLO         MOSUNNY   95  46  18 VRB5      30.04F
LA JUNTA       SUNNY     95  50  21 NW7       30.00F
LAMAR          SUNNY     96  51  21 VRB3      29.94F
SPRINGFIELD      N/A     96  50  20 SW10G17   30.00F
$$



USA.gov is the U.S. government's official web portal to all federal, state and local government web resources and services.